Torna al catalogo

FENGYUN 1C DEB

AttivoSSO
NORAD 30140·DEBRIS·🇨🇳 China

Lanciato May 10, 1999 da Taiyuan Satellite Launch Center

Loading…

Prossimi Passaggi (prossime 24 ore)

TLE

AggiornatoSource: Space-Track

Epoca: Sep 14, 2026, 11:11 UTC

1 30140U 99025SV  26257.46604264  .00001485  00000-0  68479-3 0  9992
2 30140  98.8075 324.9705 0040179 236.9800 191.0786 14.22141408 10501

Traccia FENGYUN 1C DEB in tempo reale con AllMySat

Download on the App Store